Weather History for KAFK - March, 2013

Change the Weather History Date:

Wednesday, March 13, 2013

  Actual Average (KSDA) Record (KSDA)
Temperature  
Mean Temperature 30 °F -  
Max Temperature 40 °F 49 °F 78 °F (2007)
Min Temperature 19 °F 27 °F 3 °F (1975)
Degree Days  
Heating Degree Days 36    
Moisture  
Dew Point 18 °F    
Average Humidity 66    
Maximum Humidity 86    
Minimum Humidity 36    
Precipitation  
Precipitation 0.00 in - - ()
Sea Level Pressure  
Sea Level Pressure 30.36 in    
Wind  
Wind Speed 2 mph (NW)    
Max Wind Speed 10 mph    
Max Gust Speed -    
Visibility 10 miles    
Events      
Averages and records for this station are not official NWS values.
T = Trace of Precipitation, MM = Missing Value Source: NWS Daily Summary

Daily Weather History Graph

Daily Weather History Graph

Search for Another Location

Airport or City:

Trip Planner

Search our weather history database for the weather conditions in past years. The results will help you decide how hot, cold, wet, or windy it might be!

Date:

Astronomy

Mar. 13, 2013 Rise Set
Actual Time 7:37 AM CDT 7:28 PM CDT
Civil Twilight 7:10 AM CDT 7:55 PM CDT
Nautical Twilight 6:38 AM CDT 8:27 PM CDT
Astronomical Twilight 6:06 AM CDT 8:59 PM CDT
Moon 8:17 AM CDT (3/13) 9:46 PM CDT (3/13)
Length of Visible Light 12h 44m
Length of Day
11h 50m
Waxing Crescent, 4% of the Moon is Illuminated
Mar 13
Waxing Crescent
Mar 19
First Quarter
Mar 27
Full
Apr 2
Last Quarter
Apr 10
New

Hourly Weather History & Observations

Time (CDT) Temp. Windchill Dew Point Humidity Pressure Visibility Wind Dir Wind Speed Gust Speed Precip Events Conditions
12:55 AM 24.6 °F 17.7 °F 19.2 °F 80% 30.33 in 10.0 mi NW 5.8 mph - N/A   Clear
1:15 AM 23.9 °F - 19.2 °F 82% 30.33 in 10.0 mi Calm Calm - N/A   Clear
1:35 AM 23.7 °F - 18.9 °F 82% 30.34 in 10.0 mi Calm Calm - N/A   Clear
1:55 AM 23.7 °F 13.3 °F 18.9 °F 82% 30.34 in 10.0 mi NW 10.4 mph - N/A   Clear
2:15 AM 24.3 °F 15.4 °F 18.9 °F 80% 30.34 in 10.0 mi NNW 8.1 mph - N/A   Clear
2:35 AM 23.4 °F - 18.5 °F 82% 30.35 in 10.0 mi Calm Calm - N/A   Clear
2:55 AM 21.9 °F - 17.6 °F 83% 30.35 in 10.0 mi Calm Calm - N/A   Clear
3:15 AM 22.1 °F 12.8 °F 17.8 °F 83% 30.35 in 10.0 mi WNW 8.1 mph - N/A   Clear
3:55 AM 22.1 °F 12.8 °F 17.6 °F 83% 30.36 in 10.0 mi WNW 8.1 mph - N/A   Clear
4:15 AM 21.6 °F - 17.1 °F 83% 30.36 in 10.0 mi Calm Calm - N/A   Clear
4:35 AM 21.6 °F - 17.1 °F 83% 30.36 in 10.0 mi Calm Calm - N/A   Clear
4:55 AM 21.0 °F - 16.7 °F 83% 30.36 in 10.0 mi Calm Calm - N/A   Clear
5:15 AM 20.1 °F - 16.2 °F 85% 30.37 in 10.0 mi Calm Calm - N/A   Clear
5:35 AM 20.5 °F - 16.7 °F 85% 30.38 in 10.0 mi Calm Calm - N/A   Clear
5:55 AM 20.8 °F - 16.3 °F 83% 30.38 in 10.0 mi Calm Calm - N/A   Clear
6:15 AM 19.9 °F - 15.8 °F 84% 30.40 in 10.0 mi Calm Calm - N/A   Clear
6:35 AM 19.9 °F - 15.8 °F 84% 30.39 in 10.0 mi Calm Calm - N/A   Clear
6:55 AM 19.4 °F - 15.4 °F 85% 30.40 in 10.0 mi Calm Calm - N/A   Clear
7:35 AM 19.2 °F - 15.3 °F 85% 30.40 in 10.0 mi Calm Calm - N/A   Clear
7:55 AM 19.9 °F - 16.3 °F 86% 30.39 in 10.0 mi Calm Calm - N/A   Clear
8:15 AM 20.1 °F - 16.5 °F 86% 30.39 in 10.0 mi Calm Calm - N/A   Clear
8:35 AM 21.0 °F - 17.4 °F 86% 30.40 in 10.0 mi Calm Calm - N/A   Clear
8:55 AM 21.7 °F - 17.6 °F 84% 30.41 in 10.0 mi Calm Calm - N/A   Clear
9:15 AM 22.8 °F - 18.1 °F 82% 30.41 in 10.0 mi Calm Calm - N/A   Clear
9:35 AM 24.4 °F - 18.3 °F 78% 30.42 in 10.0 mi Calm Calm - N/A   Clear
9:55 AM 25.2 °F - 18.5 °F 76% 30.43 in 10.0 mi Calm Calm - N/A   Clear
10:15 AM 25.7 °F - 18.5 °F 74% 30.44 in 10.0 mi Calm Calm - N/A   Clear
10:35 AM 26.6 °F - 19.0 °F 73% 30.45 in 10.0 mi Calm Calm - N/A   Clear
10:55 AM 28.0 °F - 19.6 °F 71% 30.45 in 10.0 mi Calm Calm - N/A   Clear
11:15 AM 28.9 °F - 19.6 °F 68% 30.45 in 10.0 mi Calm Calm - N/A   Scattered Clouds
11:35 AM 29.3 °F - 20.3 °F 69% 30.46 in 10.0 mi Calm Calm - N/A   Scattered Clouds
11:55 AM 30.0 °F - 20.3 °F 67% 30.46 in 10.0 mi Calm Calm - N/A   Clear
12:15 PM 30.9 °F - 20.5 °F 65% 30.45 in 10.0 mi Calm Calm - N/A   Clear
12:35 PM 31.8 °F - 21.2 °F 65% 30.44 in 10.0 mi Calm Calm - N/A   Mostly Cloudy
12:55 PM 32.0 °F - 18.9 °F 58% 30.44 in 10.0 mi Calm Calm - N/A   Overcast
1:15 PM 32.5 °F - 19.6 °F 59% 30.44 in 10.0 mi Calm Calm - N/A   Overcast
1:35 PM 33.1 °F - 19.2 °F 57% 30.43 in 10.0 mi Calm Calm - N/A   Overcast
1:55 PM 33.8 °F - 20.3 °F 58% 30.42 in 10.0 mi Calm Calm - N/A   Overcast
2:15 PM 33.4 °F - 20.1 °F 58% 30.40 in 10.0 mi Calm Calm - N/A   Overcast
2:35 PM 34.2 °F - 20.1 °F 57% 30.40 in 10.0 mi Calm Calm - N/A   Overcast
2:55 PM 34.3 °F - 16.7 °F 49% 30.39 in 10.0 mi Calm Calm - N/A   Overcast
3:15 PM 34.5 °F - 15.8 °F 46% 30.38 in 10.0 mi Calm Calm - N/A   Overcast
3:35 PM 36.0 °F - 14.4 °F 41% 30.38 in 10.0 mi Calm Calm - N/A   Overcast
3:55 PM 36.7 °F - 16.7 °F 44% 30.37 in 10.0 mi Calm Calm - N/A   Mostly Cloudy
4:15 PM 38.1 °F - 14.9 °F 39% 30.35 in 10.0 mi Calm Calm - N/A   Mostly Cloudy
4:35 PM 38.1 °F - 13.3 °F 36% 30.35 in 10.0 mi Calm Calm - N/A   Overcast
4:55 PM 38.5 °F - 15.4 °F 39% 30.36 in 10.0 mi Calm Calm - N/A   Overcast
5:15 PM 39.2 °F - 16.0 °F 39% 30.34 in 10.0 mi Calm Calm - N/A   Overcast
5:35 PM 39.7 °F - 16.9 °F 40% 30.33 in 10.0 mi Calm Calm - N/A   Mostly Cloudy
5:55 PM 40.1 °F - 17.2 °F 40% 30.33 in 10.0 mi Calm Calm - N/A   Scattered Clouds
6:15 PM 39.7 °F - 18.3 °F 42% 30.32 in 10.0 mi Calm Calm - N/A   Clear
6:35 PM 39.4 °F - 19.8 °F 45% 30.31 in 10.0 mi Calm Calm - N/A   Clear
6:55 PM 38.8 °F - 19.9 °F 47% 30.31 in 10.0 mi Calm Calm - N/A   Clear
7:15 PM 38.3 °F - 19.0 °F 46% 30.30 in 10.0 mi Calm Calm - N/A   Clear
7:35 PM 37.6 °F - 18.3 °F 46% 30.30 in 10.0 mi Calm Calm - N/A   Clear
7:55 PM 36.7 °F - 18.0 °F 47% 30.30 in 10.0 mi Calm Calm - N/A   Clear
8:15 PM 36.9 °F - 17.6 °F 46% 30.30 in 10.0 mi Calm Calm - N/A   Clear
8:35 PM 36.1 °F - 18.5 °F 49% 30.29 in 10.0 mi Calm Calm - N/A   Clear
8:55 PM 35.4 °F - 20.5 °F 55% 30.28 in 10.0 mi Calm Calm - N/A   Clear
9:15 PM 34.0 °F - 21.2 °F 60% 30.27 in 10.0 mi Calm Calm - N/A   Clear
9:35 PM 33.8 °F - 21.2 °F 60% 30.27 in 10.0 mi Calm Calm - N/A   Clear
9:55 PM 33.1 °F - 21.6 °F 63% 30.27 in 10.0 mi Calm Calm - N/A   Clear
10:15 PM 32.0 °F - 21.9 °F 66% 30.27 in 10.0 mi Calm Calm - N/A   Clear
10:35 PM 32.0 °F - 21.9 °F 66% 30.27 in 10.0 mi Calm Calm - N/A   Clear
10:55 PM 32.0 °F - 21.9 °F 66% 30.27 in 10.0 mi Calm Calm - N/A   Clear
11:15 PM 31.3 °F - 22.1 °F 69% 30.26 in 10.0 mi Calm Calm - N/A   Clear
11:35 PM 31.8 °F - 21.9 °F 67% 30.26 in 10.0 mi Calm Calm - N/A   Clear
11:55 PM 32.0 °F - 21.9 °F 66% 30.26 in 10.0 mi Calm Calm - N/A   Clear